| time (UTC) | temp F | wind direction | speed MPH | gust MPH | rain 1hr in | rain 24hr in | rain mn in | humidity % | barometer mb |
| 20260508035518 | 71 | 68 | 3.0 | 8.0 | 0.00 | 0.00 | 0.00 | 76 | 1013.3 |
| 20260508035017 | 71 | 88 | 3.0 | 10.0 | 0.00 | 0.00 | 0.00 | 76 | 1013.4 |
| 20260508034452 | 71 | 59 | 4.0 | 13.0 | 0.00 | 0.00 | 0.00 | 76 | 1013.2 |
| 20260508033946 | 71 | 97 | 4.0 | 10.0 | 0.00 | 0.00 | 0.00 | 76 | 1012.9 |
| 20260508033446 | 71 | 100 | 3.0 | 8.0 | 0.00 | 0.00 | 0.00 | 75 | 1012.9 |
| 20260508032927 | 71 | 85 | 3.0 | 8.0 | 0.00 | 0.00 | 0.00 | 75 | 1013.0 |
| 20260508032402 | 71 | 98 | 2.0 | 8.0 | 0.00 | 0.00 | 0.00 | 74 | 1013.2 |
| 20260508032050 | 71 | 78 | 2.0 | 7.0 | 0.00 | 0.00 | 0.00 | 74 | 1013.4 |
| 20260508031318 | 71 | 87 | 2.0 | 5.0 | 0.00 | 0.00 | 0.00 | 74 | 1013.5 |
| 20260508030744 | 71 | 39 | 3.0 | 7.0 | 0.00 | 0.00 | 0.00 | 74 | 1013.6 |
| 20260508030238 | 71 | 64 | 2.0 | 7.0 | 0.00 | 0.00 | 0.00 | 73 | 1013.6 |
| 20260508025713 | 72 | 82 | 2.0 | 8.0 | 0.00 | 0.00 | 0.00 | 73 | 1013.6 |
| 20260508025445 | 72 | 84 | 2.0 | 8.0 | 0.00 | 0.00 | 0.00 | 73 | 1013.7 |
| 20260508024650 | 72 | 40 | 2.0 | 6.0 | 0.00 | 0.00 | 0.00 | 73 | 1013.8 |
| 20260508024145 | 72 | 65 | 2.0 | 4.0 | 0.00 | 0.00 | 0.00 | 73 | 1013.9 |
| 20260508023621 | 72 | 24 | 2.0 | 4.0 | 0.00 | 0.00 | 0.00 | 73 | 1013.9 |
| 20260508023121 | 72 | 19 | 2.0 | 7.0 | 0.00 | 0.00 | 0.00 | 73 | 1013.6 |
| 20260508022622 | 72 | 62 | 3.0 | 7.0 | 0.00 | 0.00 | 0.00 | 72 | 1013.5 |
| 20260508022347 | 72 | 27 | 3.0 | 7.0 | 0.00 | 0.00 | 0.00 | 73 | 1013.5 |
| 20260508021616 | 73 | 61 | 2.0 | 7.0 | 0.00 | 0.00 | 0.00 | 73 | 1013.4 |
| 20260508021053 | 73 | 28 | 2.0 | 4.0 | 0.00 | 0.00 | 0.00 | 73 | 1013.6 |
| 20260508020552 | 73 | 17 | 1.0 | 3.0 | 0.00 | 0.00 | 0.00 | 74 | 1013.6 |
| 20260508020031 | 73 | 34 | 1.0 | 3.0 | 0.00 | 0.00 | 0.00 | 74 | 1013.7 |
| 20260508015529 | 73 | 32 | 1.0 | 3.0 | 0.00 | 0.00 | 0.00 | 74 | 1013.6 |
| 20260508015246 | 73 | 43 | 1.0 | 3.0 | 0.00 | 0.00 | 0.00 | 73 | 1013.5 |
| 20260508014520 | 73 | 43 | 1.0 | 4.0 | 0.00 | 0.00 | 0.00 | 73 | 1013.5 |
| 20260508014020 | 73 | 43 | 1.0 | 4.0 | 0.00 | 0.00 | 0.00 | 73 | 1013.4 |
| 20260508013458 | 74 | 53 | 1.0 | 4.0 | 0.00 | 0.00 | 0.00 | 72 | 1013.5 |
| 20260508012932 | 74 | 40 | 2.0 | 4.0 | 0.00 | 0.00 | 0.00 | 72 | 1013.6 |
| 20260508012405 | 74 | 46 | 2.0 | 4.0 | 0.00 | 0.00 | 0.00 | 72 | 1013.5 |
| 20260508011841 | 74 | 21 | 1.0 | 4.0 | 0.00 | 0.00 | 0.00 | 72 | 1013.5 |
| 20260508011319 | 74 | 61 | 1.0 | 4.0 | 0.00 | 0.00 | 0.00 | 72 | 1013.5 |
| 20260508010752 | 74 | 76 | 2.0 | 7.0 | 0.00 | 0.00 | 0.00 | 72 | 1013.2 |
| 20260508010249 | 74 | 98 | 1.0 | 7.0 | 0.00 | 0.00 | 0.00 | 71 | 1013.2 |
| 20260508005746 | 75 | 50 | 1.0 | 5.0 | 0.00 | 0.00 | 0.00 | 71 | 1013.2 |
| 20260508005444 | 75 | 41 | 2.0 | 5.0 | 0.00 | 0.00 | 0.00 | 71 | 1013.2 |
| 20260508004725 | 75 | 30 | 2.0 | 5.0 | 0.00 | 0.00 | 0.00 | 71 | 1013.3 |
| 20260508004222 | 75 | 10 | 2.0 | 6.0 | 0.00 | 0.00 | 0.00 | 71 | 1013.2 |
| 20260508003722 | 75 | 101 | 2.0 | 6.0 | 0.00 | 0.00 | 0.00 | 71 | 1013.0 |
| 20260508003223 | 76 | 61 | 2.0 | 4.0 | 0.00 | 0.00 | 0.00 | 71 | 1013.2 |
| 20260508002720 | 76 | 17 | 2.0 | 5.0 | 0.00 | 0.00 | 0.00 | 71 | 1013.1 |
| 20260508002212 | 76 | 19 | 2.0 | 5.0 | 0.00 | 0.00 | 0.00 | 71 | 1013.4 |
| 20260508001711 | 76 | 71 | 2.0 | 4.0 | 0.00 | 0.00 | 0.00 | 71 | 1013.5 |
| 20260508001210 | 76 | 29 | 2.0 | 5.0 | 0.00 | 0.00 | 0.00 | 71 | 1013.4 |
| 20260508000706 | 76 | 87 | 2.0 | 5.0 | 0.00 | 0.00 | 0.00 | 71 | 1013.5 |
| 20260508000138 | 76 | 90 | 2.0 | 5.0 | 0.00 | 0.00 | 0.00 | 71 | 1013.5 |
| 20260507235638 | 76 | 34 | 2.0 | 5.0 | 0.00 | 0.00 | 0.00 | 71 | 1013.5 |
| 20260507235112 | 76 | 87 | 3.0 | 7.0 | 0.00 | 0.00 | 0.00 | 71 | 1013.6 |
| 20260507234545 | 76 | 42 | 3.0 | 7.0 | 0.00 | 0.00 | 0.00 | 70 | 1013.7 |
| 20260507234016 | 76 | 11 | 3.0 | 7.0 | 0.00 | 0.00 | 0.00 | 70 | 1013.7 |
| 20260507233513 | 77 | 36 | 3.0 | 7.0 | 0.00 | 0.00 | 0.00 | 70 | 1013.6 |
| 20260507232947 | 77 | 55 | 2.0 | 6.0 | 0.00 | 0.00 | 0.00 | 70 | 1013.4 |
| 20260507232423 | 77 | 30 | 2.0 | 6.0 | 0.00 | 0.00 | 0.00 | 70 | 1013.5 |
| 20260507231919 | 77 | 355 | 2.0 | 6.0 | 0.00 | 0.00 | 0.00 | 71 | 1013.4 |
| 20260507231416 | 77 | 13 | 2.0 | 7.0 | 0.00 | 0.00 | 0.00 | 70 | 1013.3 |
| 20260507230854 | 77 | 17 | 3.0 | 7.0 | 0.00 | 0.00 | 0.00 | 69 | 1013.1 |
| 20260507230325 | 78 | 28 | 3.0 | 7.0 | 0.00 | 0.00 | 0.00 | 68 | 1013.0 |
| 20260507225824 | 78 | 17 | 3.0 | 6.0 | 0.00 | 0.00 | 0.00 | 68 | 1013.1 |
| 20260507225520 | 78 | 69 | 3.0 | 7.0 | 0.00 | 0.00 | 0.00 | 68 | 1013.1 |
| 20260507224957 | 78 | 46 | 3.0 | 7.0 | 0.00 | 0.00 | 0.00 | 68 | 1012.9 |
| 20260507224228 | 78 | 80 | 3.0 | 6.0 | 0.00 | 0.00 | 0.00 | 69 | 1012.9 |
| 20260507223659 | 78 | 75 | 2.0 | 8.0 | 0.00 | 0.00 | 0.00 | 70 | 1012.9 |
| 20260507223132 | 78 | 57 | 3.0 | 8.0 | 0.00 | 0.00 | 0.00 | 69 | 1012.8 |
| 20260507222606 | 78 | 70 | 4.0 | 9.0 | 0.00 | 0.00 | 0.00 | 69 | 1012.8 |
| 20260507222040 | 78 | 89 | 3.0 | 9.0 | 0.00 | 0.00 | 0.00 | 69 | 1013.0 |
| 20260507221516 | 78 | 61 | 3.0 | 7.0 | 0.00 | 0.00 | 0.00 | 69 | 1012.9 |
| 20260507220948 | 78 | 78 | 3.0 | 6.0 | 0.00 | 0.00 | 0.00 | 68 | 1013.1 |
| 20260507220445 | 79 | 94 | 2.0 | 5.0 | 0.00 | 0.00 | 0.00 | 69 | 1013.1 |
| 20260507215918 | 79 | 49 | 2.0 | 6.0 | 0.00 | 0.00 | 0.00 | 69 | 1013.1 |
| 20260507215352 | 79 | 81 | 3.0 | 6.0 | 0.00 | 0.00 | 0.00 | 69 | 1013.2 |
| 20260507214852 | 79 | 24 | 3.0 | 7.0 | 0.00 | 0.00 | 0.00 | 69 | 1013.1 |
| 20260507214325 | 79 | 101 | 3.0 | 7.0 | 0.00 | 0.00 | 0.00 | 68 | 1013.2 |
| 20260507213819 | 79 | 55 | 3.0 | 11.0 | 0.00 | 0.00 | 0.00 | 69 | 1013.3 |
| 20260507213317 | 79 | 33 | 4.0 | 11.0 | 0.00 | 0.00 | 0.00 | 69 | 1013.4 |
| 20260507213012 | 79 | 92 | 3.0 | 9.0 | 0.00 | 0.00 | 0.00 | 70 | 1013.4 |
| 20260507212247 | 79 | 55 | 3.0 | 9.0 | 0.00 | 0.00 | 0.00 | 71 | 1013.3 |
| 20260507211745 | 79 | 0 | 3.0 | 7.0 | 0.00 | 0.00 | 0.00 | 70 | 1013.3 |
| 20260507211219 | 79 | 101 | 3.0 | 8.0 | 0.00 | 0.00 | 0.00 | 70 | 1013.4 |
| 20260507210652 | 79 | 66 | 3.0 | 8.0 | 0.00 | 0.00 | 0.00 | 69 | 1013.5 |
| 20260507210127 | 79 | 90 | 3.0 | 8.0 | 0.00 | 0.00 | 0.00 | 70 | 1013.6 |
| 20260507205600 | 79 | 36 | 3.0 | 7.0 | 0.00 | 0.00 | 0.00 | 70 | 1013.7 |
| 20260507205033 | 79 | 5 | 3.0 | 7.0 | 0.00 | 0.00 | 0.00 | 69 | 1013.7 |
| 20260507204506 | 79 | 285 | 3.0 | 10.0 | 0.00 | 0.00 | 0.00 | 70 | 1013.7 |
| 20260507203940 | 79 | 35 | 2.0 | 10.0 | 0.00 | 0.02 | 0.00 | 71 | 1013.7 |
| 20260507203417 | 79 | 88 | 3.0 | 13.0 | 0.00 | 0.02 | 0.00 | 70 | 1013.7 |
| 20260507202847 | 80 | 72 | 4.0 | 13.0 | 0.00 | 0.02 | 0.00 | 70 | 1013.6 |
| 20260507202608 | 80 | 23 | 3.0 | 9.0 | 0.00 | 0.02 | 0.00 | 70 | 1013.8 |
| 20260507201842 | 79 | 20 | 3.0 | 9.0 | 0.00 | 0.02 | 0.00 | 71 | 1013.9 |
| 20260507201338 | 79 | 55 | 4.0 | 15.0 | 0.00 | 0.02 | 0.00 | 72 | 1013.9 |
| 20260507200811 | 78 | 90 | 4.0 | 15.0 | 0.00 | 0.02 | 0.00 | 72 | 1013.9 |
| 20260507200247 | 78 | 11 | 3.0 | 9.0 | 0.00 | 0.02 | 0.00 | 71 | 1014.1 |
| 20260507195720 | 78 | 18 | 3.0 | 7.0 | 0.00 | 0.02 | 0.00 | 71 | 1014.1 |
| 20260507195153 | 78 | 99 | 2.0 | 7.0 | 0.00 | 0.02 | 0.00 | 72 | 1014.0 |
| 20260507194652 | 78 | 313 | 3.0 | 8.0 | 0.00 | 0.02 | 0.00 | 72 | 1014.0 |
| 20260507194149 | 77 | 82 | 3.0 | 8.0 | 0.00 | 0.02 | 0.00 | 73 | 1014.2 |
| 20260507193623 | 77 | 36 | 3.0 | 9.0 | 0.00 | 0.02 | 0.00 | 72 | 1014.1 |
| 20260507193055 | 77 | 38 | 4.0 | 9.0 | 0.00 | 0.02 | 0.00 | 74 | 1014.2 |
| 20260507192815 | 76 | 26 | 3.0 | 10.0 | 0.00 | 0.02 | 0.00 | 73 | 1014.5 |
| 20260507192024 | 77 | 15 | 3.0 | 10.0 | 0.00 | 0.02 | 0.00 | 73 | 1014.7 |
| 20260507191522 | 76 | 57 | 3.0 | 8.0 | 0.00 | 0.02 | 0.00 | 74 | 1014.8 |
| 20260507190957 | 76 | 30 | 4.0 | 8.0 | 0.00 | 0.02 | 0.00 | 74 | 1014.9 |
| 20260507190454 | 75 | 105 | 4.0 | 9.0 | 0.00 | 0.02 | 0.00 | 74 | 1015.0 |
| 20260507185950 | 75 | 304 | 4.0 | 9.0 | 0.00 | 0.02 | 0.00 | 75 | 1015.0 |
| 20260507185447 | 75 | 33 | 3.0 | 7.0 | 0.00 | 0.02 | 0.00 | 74 | 1015.0 |
| 20260507184945 | 75 | 36 | 3.0 | 7.0 | 0.00 | 0.02 | 0.00 | 75 | 1015.3 |
| 20260507184417 | 74 | 32 | 3.0 | 7.0 | 0.00 | 0.02 | 0.00 | 74 | 1015.3 |
| 20260507184138 | 74 | 52 | 3.0 | 7.0 | 0.00 | 0.02 | 0.00 | 75 | 1015.2 |
| 20260507183347 | 74 | 350 | 3.0 | 10.0 | 0.00 | 0.02 | 0.00 | 75 | 1015.3 |
| 20260507182845 | 73 | 329 | 4.0 | 10.0 | 0.00 | 0.02 | 0.00 | 76 | 1015.4 |
| 20260507182319 | 73 | 10 | 4.0 | 10.0 | 0.00 | 0.02 | 0.00 | 75 | 1015.5 |
| 20260507181816 | 73 | 46 | 3.0 | 10.0 | 0.00 | 0.02 | 0.00 | 75 | 1015.5 |
| 20260507181313 | 74 | 5 | 3.0 | 7.0 | 0.00 | 0.02 | 0.00 | 76 | 1015.4 |
| 20260507180745 | 73 | 28 | 3.0 | 7.0 | 0.00 | 0.02 | 0.00 | 76 | 1015.5 |
| 20260507180452 | 72 | 47 | 3.0 | 9.0 | 0.00 | 0.02 | 0.00 | 78 | 1015.5 |
| 20260507175715 | 71 | 5 | 4.0 | 9.0 | 0.00 | 0.02 | 0.00 | 78 | 1015.6 |
| 20260507175149 | 71 | 32 | 4.0 | 9.0 | 0.00 | 0.02 | 0.00 | 79 | 1015.7 |
| 20260507174621 | 70 | 5 | 4.0 | 9.0 | 0.00 | 0.02 | 0.00 | 79 | 1015.9 |
| 20260507174117 | 70 | 54 | 4.0 | 9.0 | 0.00 | 0.02 | 0.00 | 80 | 1015.9 |
| 20260507173617 | 70 | 49 | 4.0 | 10.0 | 0.00 | 0.02 | 0.00 | 79 | 1016.0 |
| 20260507173050 | 70 | 0 | 3.0 | 10.0 | 0.00 | 0.02 | 0.00 | 79 | 1016.2 |
| 20260507172546 | 70 | 29 | 3.0 | 7.0 | 0.00 | 0.02 | 0.00 | 80 | 1016.2 |
| 20260507172022 | 70 | 10 | 3.0 | 7.0 | 0.00 | 0.02 | 0.00 | 79 | 1016.2 |
| 20260507171516 | 70 | 309 | 3.0 | 7.0 | 0.00 | 0.02 | 0.00 | 79 | 1016.1 |
| 20260507171012 | 69 | 355 | 3.0 | 7.0 | 0.00 | 0.02 | 0.00 | 79 | 1016.1 |
| 20260507170510 | 69 | 323 | 3.0 | 7.0 | 0.00 | 0.02 | 0.00 | 80 | 1016.1 |
| 20260507170256 | 69 | 323 | 3.0 | 7.0 | 0.00 | 0.02 | 0.00 | 80 | 1016.2 |
| 20260507170153 | 69 | 0 | 3.0 | 6.0 | 0.00 | 0.02 | 0.00 | 80 | 1016.2 |
| 20260507164935 | 69 | 308 | 3.0 | 7.0 | 0.00 | 0.02 | 0.00 | 80 | 1016.3 |
| 20260507164432 | 69 | 5 | 3.0 | 7.0 | 0.00 | 0.02 | 0.00 | 79 | 1016.3 |
| 20260507163929 | 69 | 28 | 3.0 | 7.0 | 0.00 | 0.02 | 0.00 | 79 | 1016.2 |
| 20260507163402 | 70 | 19 | 2.0 | 7.0 | 0.00 | 0.02 | 0.00 | 78 | 1016.1 |
| 20260507162857 | 70 | 37 | 2.0 | 5.0 | 0.00 | 0.02 | 0.00 | 80 | 1016.0 |
| 20260507162337 | 69 | 67 | 3.0 | 6.0 | 0.00 | 0.02 | 0.00 | 81 | 1015.7 |
| 20260507161802 | 69 | 24 | 3.0 | 9.0 | 0.00 | 0.02 | 0.00 | 80 | 1015.6 |
| 20260507161237 | 69 | 39 | 3.0 | 8.0 | 0.00 | 0.02 | 0.00 | 81 | 1015.5 |
| 20260507160710 | 68 | 47 | 3.0 | 8.0 | 0.00 | 0.02 | 0.00 | 81 | 1015.4 |
| 20260507160630 | 68 | 68 | 3.0 | 8.0 | 0.00 | 0.02 | 0.00 | 83 | 1015.4 |
| 20260507155640 | 67 | 55 | 3.0 | 10.0 | 0.00 | 0.02 | 0.00 | 83 | 1015.5 |
| 20260507155135 | 67 | 27 | 4.0 | 8.0 | 0.00 | 0.02 | 0.00 | 83 | 1015.6 |
| 20260507154607 | 66 | 61 | 4.0 | 10.0 | 0.00 | 0.02 | 0.00 | 83 | 1015.7 |
| 20260507154105 | 66 | 0 | 3.0 | 9.0 | 0.00 | 0.02 | 0.00 | 84 | 1015.8 |
| 20260507153539 | 65 | 98 | 3.0 | 10.0 | 0.00 | 0.02 | 0.00 | 85 | 1016.0 |
| 20260507153035 | 65 | 42 | 3.0 | 10.0 | 0.00 | 0.02 | 0.00 | 85 | 1016.0 |
| 20260507152506 | 65 | 38 | 3.0 | 8.0 | 0.00 | 0.02 | 0.00 | 85 | 1016.2 |
| 20260507152003 | 65 | 102 | 4.0 | 8.0 | 0.00 | 0.02 | 0.00 | 85 | 1016.1 |
| 20260507151723 | 64 | 61 | 3.0 | 7.0 | 0.00 | 0.02 | 0.00 | 86 | 1016.0 |
| 20260507150935 | 64 | 35 | 3.0 | 7.0 | 0.00 | 0.02 | 0.00 | 86 | 1016.0 |
| 20260507150414 | 64 | 344 | 3.0 | 8.0 | 0.00 | 0.02 | 0.00 | 86 | 1016.1 |
| 20260507145900 | 64 | 0 | 3.0 | 8.0 | 0.00 | 0.02 | 0.00 | 86 | 1016.1 |
| 20260507145356 | 64 | 0 | 4.0 | 9.0 | 0.00 | 0.02 | 0.00 | 86 | 1015.9 |
| 20260507144828 | 64 | 0 | 3.0 | 9.0 | 0.00 | 0.02 | 0.00 | 86 | 1015.9 |
| 20260507144326 | 64 | 0 | 3.0 | 12.0 | 0.00 | 0.02 | 0.00 | 87 | 1015.6 |
| 20260507144031 | 64 | 53 | 5.0 | 14.0 | 0.00 | 0.02 | 0.00 | 86 | 1015.7 |
| 20260507143308 | 64 | 0 | 5.0 | 14.0 | 0.00 | 0.02 | 0.00 | 86 | 1015.7 |
| 20260507142741 | 64 | 0 | 5.0 | 14.0 | 0.00 | 0.02 | 0.00 | 86 | 1015.5 |
| 20260507142239 | 64 | 44 | 4.0 | 10.0 | 0.00 | 0.02 | 0.00 | 87 | 1015.4 |
| 20260507141735 | 64 | 19 | 4.0 | 12.0 | 0.00 | 0.02 | 0.00 | 87 | 1015.3 |
| 20260507141457 | 64 | 30 | 4.0 | 12.0 | 0.00 | 0.02 | 0.00 | 87 | 1015.2 |
| 20260507140736 | 64 | 13 | 3.0 | 9.0 | 0.00 | 0.02 | 0.00 | 87 | 1015.4 |
| 20260507140233 | 64 | 44 | 3.0 | 7.0 | 0.00 | 0.02 | 0.00 | 87 | 1015.6 |
| 20260507135734 | 64 | 355 | 2.0 | 7.0 | 0.00 | 0.02 | 0.00 | 87 | 1015.7 |
| 20260507135236 | 64 | 53 | 2.0 | 8.0 | 0.00 | 0.02 | 0.00 | 87 | 1015.8 |
| 20260507134939 | 64 | 34 | 3.0 | 8.0 | 0.00 | 0.02 | 0.00 | 87 | 1015.6 |
| 20260507134206 | 64 | 19 | 3.0 | 7.0 | 0.00 | 0.02 | 0.00 | 87 | 1015.8 |
| 20260507133919 | 64 | 17 | 3.0 | 9.0 | 0.00 | 0.02 | 0.00 | 87 | 1015.9 |
| 20260507133200 | 64 | 102 | 3.0 | 9.0 | 0.00 | 0.02 | 0.00 | 88 | 1015.9 |
| 20260507132635 | 64 | 0 | 3.0 | 8.0 | 0.00 | 0.02 | 0.00 | 88 | 1016.1 |
| 20260507132109 | 64 | 9 | 3.0 | 8.0 | 0.00 | 0.02 | 0.00 | 89 | 1016.1 |
| 20260507131543 | 64 | 301 | 3.0 | 8.0 | 0.00 | 0.02 | 0.00 | 89 | 1015.8 |
| 20260507131015 | 64 | 0 | 3.0 | 9.0 | 0.00 | 0.02 | 0.00 | 89 | 1015.7 |
| 20260507130512 | 64 | 0 | 4.0 | 9.0 | 0.00 | 0.02 | 0.00 | 89 | 1015.9 |
| 20260507125946 | 64 | 0 | 4.0 | 9.0 | 0.00 | 0.02 | 0.00 | 89 | 1016.0 |
| 20260507125443 | 64 | 0 | 3.0 | 8.0 | 0.00 | 0.02 | 0.00 | 89 | 1015.8 |
| 20260507124915 | 64 | 0 | 3.0 | 9.0 | 0.00 | 0.02 | 0.00 | 89 | 1015.8 |
| 20260507124412 | 64 | 0 | 3.0 | 12.0 | 0.00 | 0.02 | 0.00 | 89 | 1015.8 |
| 20260507123847 | 64 | 0 | 3.0 | 12.0 | 0.00 | 0.02 | 0.00 | 89 | 1015.6 |
| 20260507123540 | 64 | 0 | 3.0 | 8.0 | 0.00 | 0.02 | 0.00 | 89 | 1015.6 |
| 20260507122816 | 64 | 0 | 3.0 | 8.0 | 0.00 | 0.02 | 0.00 | 89 | 1015.4 |
| 20260507122314 | 64 | 28 | 2.0 | 8.0 | 0.00 | 0.02 | 0.00 | 89 | 1015.2 |
| 20260507121749 | 64 | 348 | 2.0 | 9.0 | 0.00 | 0.02 | 0.00 | 89 | 1015.1 |
| 20260507121245 | 64 | 10 | 3.0 | 9.0 | 0.00 | 0.02 | 0.00 | 88 | 1015.1 |
| 20260507120743 | 64 | 22 | 3.0 | 8.0 | 0.00 | 0.02 | 0.00 | 88 | 1014.7 |
| 20260507120438 | 65 | 63 | 3.0 | 7.0 | 0.00 | 0.02 | 0.00 | 89 | 1014.5 |
| 20260507115649 | 65 | 0 | 4.0 | 11.0 | 0.00 | 0.02 | 0.00 | 89 | 1014.6 |
| 20260507115145 | 65 | 16 | 4.0 | 11.0 | 0.00 | 0.02 | 0.00 | 88 | 1014.3 |
| 20260507114619 | 65 | 0 | 3.0 | 7.0 | 0.00 | 0.02 | 0.00 | 88 | 1014.5 |
| 20260507114055 | 65 | 0 | 2.0 | 6.0 | 0.00 | 0.02 | 0.00 | 88 | 1014.5 |
| 20260507113743 | 65 | 0 | 3.0 | 7.0 | 0.00 | 0.02 | 0.00 | 89 | 1014.3 |
| 20260507113027 | 65 | 0 | 2.0 | 7.0 | 0.00 | 0.02 | 0.00 | 88 | 1014.2 |
| 20260507112725 | 65 | 43 | 1.0 | 7.0 | 0.00 | 0.02 | 0.00 | 88 | 1014.0 |
| 20260507112445 | 65 | 82 | 3.0 | 7.0 | 0.00 | 0.02 | 0.00 | 88 | 1013.9 |
| 20260507111429 | 65 | 24 | 3.0 | 9.0 | 0.00 | 0.02 | 0.00 | 88 | 1013.9 |
| 20260507111146 | 66 | 0 | 2.0 | 9.0 | 0.00 | 0.02 | 0.00 | 88 | 1014.1 |
| 20260507110629 | 66 | 0 | 1.0 | 5.0 | 0.00 | 0.02 | 0.00 | 88 | 1014.1 |
| 20260507105858 | 66 | 0 | 2.0 | 5.0 | 0.00 | 0.02 | 0.00 | 88 | 1013.8 |
| 20260507105330 | 66 | 0 | 2.0 | 8.0 | 0.00 | 0.02 | 0.00 | 88 | 1013.5 |
| 20260507104828 | 66 | 15 | 2.0 | 8.0 | 0.00 | 0.02 | 0.00 | 88 | 1013.7 |
| 20260507104302 | 66 | 10 | 1.0 | 5.0 | 0.00 | 0.02 | 0.00 | 88 | 1013.5 |
| 20260507103737 | 66 | 36 | 2.0 | 5.0 | 0.00 | 0.02 | 0.00 | 88 | 1013.6 |
| 20260507103209 | 66 | 86 | 2.0 | 5.0 | 0.00 | 0.02 | 0.00 | 88 | 1013.5 |
| 20260507102931 | 66 | 59 | 2.0 | 6.0 | 0.00 | 0.02 | 0.00 | 88 | 1013.6 |
| 20260507102428 | 66 | 90 | 2.0 | 6.0 | 0.00 | 0.02 | 0.00 | 88 | 1013.4 |
| 20260507101923 | 66 | 0 | 2.0 | 5.0 | 0.00 | 0.02 | 0.00 | 88 | 1013.2 |
| 20260507101133 | 66 | 46 | 2.0 | 6.0 | 0.00 | 0.02 | 0.00 | 88 | 1013.4 |
| 20260507100631 | 66 | 0 | 2.0 | 6.0 | 0.00 | 0.02 | 0.00 | 88 | 1013.2 |
| 20260507100127 | 66 | 0 | 1.0 | 4.0 | 0.00 | 0.02 | 0.00 | 88 | 1013.2 |
| 20260507095625 | 66 | 0 | 2.0 | 7.0 | 0.00 | 0.02 | 0.00 | 88 | 1013.2 |
| 20260507095059 | 66 | 0 | 1.0 | 7.0 | 0.00 | 0.02 | 0.00 | 88 | 1013.1 |
| 20260507094532 | 66 | 57 | 2.0 | 6.0 | 0.00 | 0.02 | 0.00 | 88 | 1013.3 |
| 20260507094032 | 66 | 49 | 3.0 | 8.0 | 0.00 | 0.02 | 0.00 | 88 | 1013.0 |
| 20260507093533 | 66 | 94 | 3.0 | 9.0 | 0.00 | 0.02 | 0.00 | 88 | 1012.7 |
| 20260507093031 | 66 | 24 | 2.0 | 9.0 | 0.00 | 0.02 | 0.00 | 88 | 1012.9 |
| 20260507092510 | 66 | 0 | 2.0 | 7.0 | 0.00 | 0.02 | 0.00 | 88 | 1012.7 |
| 20260507092011 | 66 | 62 | 2.0 | 6.0 | 0.00 | 0.02 | 0.00 | 88 | 1012.9 |
| 20260507091510 | 66 | 0 | 2.0 | 6.0 | 0.00 | 0.02 | 0.00 | 88 | 1012.8 |
| 20260507091012 | 66 | 0 | 2.0 | 5.0 | 0.00 | 0.02 | 0.00 | 88 | 1012.9 |
| 20260507090445 | 66 | 30 | 2.0 | 5.0 | 0.00 | 0.02 | 0.00 | 88 | 1012.8 |
| 20260507085943 | 67 | 44 | 2.0 | 9.0 | 0.00 | 0.02 | 0.00 | 88 | 1013.0 |
| 20260507085415 | 67 | 0 | 2.0 | 9.0 | 0.00 | 0.02 | 0.00 | 88 | 1012.9 |
| 20260507084913 | 67 | 0 | 2.0 | 6.0 | 0.00 | 0.02 | 0.00 | 88 | 1012.8 |
| 20260507084603 | 67 | 0 | 2.0 | 9.0 | 0.00 | 0.02 | 0.00 | 88 | 1012.8 |
| 20260507083821 | 67 | 36 | 2.0 | 9.0 | 0.00 | 0.02 | 0.00 | 88 | 1013.2 |
| 20260507083255 | 67 | 0 | 2.0 | 7.0 | 0.00 | 0.02 | 0.00 | 88 | 1012.8 |
| 20260507082727 | 67 | 355 | 3.0 | 8.0 | 0.00 | 0.02 | 0.00 | 87 | 1012.8 |
| 20260507082201 | 67 | 38 | 2.0 | 8.0 | 0.00 | 0.02 | 0.00 | 87 | 1012.9 |
| 20260507081633 | 67 | 0 | 2.0 | 6.0 | 0.00 | 0.02 | 0.00 | 87 | 1012.9 |
| 20260507081129 | 67 | 49 | 2.0 | 6.0 | 0.00 | 0.02 | 0.00 | 87 | 1013.0 |
| 20260507080629 | 67 | 49 | 2.0 | 6.0 | 0.00 | 0.02 | 0.00 | 87 | 1013.0 |
| 20260507075557 | 67 | 35 | 2.0 | 6.0 | 0.00 | 0.02 | 0.00 | 87 | 1013.0 |
| 20260507075032 | 67 | 0 | 3.0 | 6.0 | 0.00 | 0.02 | 0.00 | 87 | 1012.8 |
| 20260507074505 | 67 | 0 | 2.0 | 7.0 | 0.00 | 0.02 | 0.00 | 87 | 1012.8 |
| 20260507074002 | 67 | 0 | 3.0 | 7.0 | 0.00 | 0.02 | 0.00 | 87 | 1013.1 |
| 20260507073437 | 67 | 0 | 3.0 | 8.0 | 0.00 | 0.02 | 0.00 | 87 | 1013.1 |
| 20260507072933 | 67 | 0 | 3.0 | 8.0 | 0.00 | 0.02 | 0.00 | 86 | 1013.1 |
| 20260507072646 | 67 | 0 | 2.0 | 6.0 | 0.00 | 0.02 | 0.00 | 87 | 1013.1 |
| 20260507071919 | 67 | 0 | 2.0 | 7.0 | 0.00 | 0.02 | 0.00 | 87 | 1013.1 |
| 20260507071415 | 67 | 0 | 2.0 | 7.0 | 0.00 | 0.02 | 0.00 | 87 | 1013.1 |
| 20260507070908 | 67 | 0 | 2.0 | 7.0 | 0.00 | 0.02 | 0.00 | 87 | 1013.1 |
| 20260507070603 | 67 | 0 | 2.0 | 7.0 | 0.00 | 0.02 | 0.00 | 87 | 1013.4 |
| 20260507065837 | 67 | 0 | 2.0 | 7.0 | 0.00 | 0.02 | 0.00 | 86 | 1013.4 |
| 20260507065310 | 67 | 0 | 3.0 | 8.0 | 0.00 | 0.02 | 0.00 | 86 | 1013.4 |
| 20260507064813 | 67 | 0 | 4.0 | 8.0 | 0.00 | 0.02 | 0.00 | 86 | 1013.2 |
| 20260507064242 | 67 | 0 | 4.0 | 9.0 | 0.00 | 0.02 | 0.00 | 86 | 1013.3 |
| 20260507063714 | 67 | 0 | 3.0 | 9.0 | 0.00 | 0.02 | 0.00 | 86 | 1013.5 |
| 20260507063209 | 67 | 0 | 2.0 | 7.0 | 0.00 | 0.02 | 0.00 | 86 | 1013.5 |
| 20260507062645 | 67 | 0 | 2.0 | 7.0 | 0.00 | 0.02 | 0.00 | 85 | 1013.1 |
| 20260507062117 | 68 | 0 | 3.0 | 8.0 | 0.00 | 0.02 | 0.00 | 85 | 1013.4 |
| 20260507061838 | 68 | 0 | 3.0 | 8.0 | 0.00 | 0.02 | 0.00 | 85 | 1013.4 |
| 20260507061047 | 68 | 0 | 2.0 | 7.0 | 0.00 | 0.02 | 0.00 | 85 | 1013.3 |
| 20260507060818 | 68 | 0 | 3.0 | 7.0 | 0.00 | 0.02 | 0.00 | 85 | 1013.0 |
| 20260507060244 | 68 | 0 | 3.0 | 7.0 | 0.00 | 0.02 | 0.00 | 85 | 1012.9 |
| 20260507055713 | 68 | 0 | 3.0 | 7.0 | 0.00 | 0.02 | 0.00 | 85 | 1013.1 |
| 20260507054924 | 68 | 0 | 2.0 | 7.0 | 0.00 | 0.02 | 0.00 | 85 | 1012.9 |
| 20260507054358 | 68 | 0 | 3.0 | 8.0 | 0.00 | 0.02 | 0.00 | 84 | 1012.9 |
| 20260507053832 | 68 | 0 | 3.0 | 8.0 | 0.00 | 0.02 | 0.00 | 84 | 1013.0 |
| 20260507053330 | 69 | 0 | 3.0 | 8.0 | 0.00 | 0.02 | 0.00 | 85 | 1012.9 |
| 20260507052803 | 69 | 0 | 3.0 | 7.0 | 0.00 | 0.02 | 0.00 | 85 | 1012.8 |
| 20260507051735 | 69 | 0 | 3.0 | 10.0 | 0.00 | 0.02 | 0.00 | 85 | 1012.9 |
| 20260507051207 | 69 | 0 | 4.0 | 10.0 | 0.00 | 0.02 | 0.00 | 84 | 1012.8 |
| 20260507050703 | 69 | 0 | 4.0 | 9.0 | 0.00 | 0.02 | 0.00 | 84 | 1012.8 |
| 20260507050155 | 69 | 0 | 4.0 | 8.0 | 0.00 | 0.02 | 0.00 | 84 | 1012.9 |
| 20260507050117 | 69 | 0 | 3.0 | 8.0 | 0.00 | 0.02 | 0.02 | 84 | 1013.0 |
| 20260507045128 | 69 | 0 | 3.0 | 7.0 | 0.00 | 0.02 | 0.02 | 84 | 1013.0 |
| 20260507044603 | 69 | 0 | 3.0 | 7.0 | 0.00 | 0.02 | 0.02 | 84 | 1012.9 |
| 20260507044252 | 69 | 0 | 4.0 | 8.0 | 0.00 | 0.02 | 0.02 | 84 | 1012.9 |
| 20260507043508 | 70 | 0 | 4.0 | 8.0 | 0.00 | 0.02 | 0.02 | 84 | 1012.9 |
| 20260507043005 | 70 | 0 | 3.0 | 8.0 | 0.00 | 0.02 | 0.02 | 84 | 1012.8 |
| 20260507042502 | 70 | 32 | 3.0 | 8.0 | 0.00 | 0.02 | 0.02 | 84 | 1012.8 |
| 20260507041959 | 70 | 350 | 3.0 | 7.0 | 0.00 | 0.02 | 0.02 | 84 | 1012.8 |
| 20260507041456 | 70 | 28 | 3.0 | 7.0 | 0.00 | 0.02 | 0.02 | 84 | 1012.8 |
| 20260507040954 | 70 | 14 | 3.0 | 7.0 | 0.00 | 0.02 | 0.02 | 84 | 1012.7 |
| 20260507040426 | 70 | 5 | 3.0 | 9.0 | 0.00 | 0.02 | 0.02 | 84 | 1012.7 |
| 20260507035924 | 71 | 329 | 3.0 | 9.0 | 0.00 | 0.02 | 0.02 | 84 | 1012.7 |